WFL2094 SKCL-LEMD

Flight info

Callsign WFL2094
Flight time N/A
Altitude 37000
Route KIKUM5B ULQ DCT BUTBA DCT SERVO DCT ELB DCT UGOSA DCT AMBAS UL335 SCAPA L335 OBIKE/M084F370 M576 RKDIA DCT 28N050W/M084F390 33N040W 36N030W 38N020W/M084F410 DCT GUNTI/N0481F400 DCT TOFEF DCT OGERO DCT ROLDO Z409 TLD
Aircraft A359/H-SDE2E3GHIJ3J4J5LM1ORWXY/LB1D1

Departure

Time 2026-05-05 21:17
Airport Alfonso Bonilla Aragon International Airport (SKCL)

Arrival

Time N/A
Airport Adolfo Suárez Madrid–Barajas Airport (LEMD)
Time Latitude Longitude Altitude Speed Heading
2026-05-05 20:48 3.53460 -76.38635 3168 ft 0 kts 332°
2026-05-05 21:06 3.53458 -76.38634 3168 ft 2 kts 332°
2026-05-05 21:06 3.53435 -76.38622 3169 ft 4 kts 336°
2026-05-05 21:06 3.53410 -76.38612 3171 ft 4 kts 333°
2026-05-05 21:06 3.53388 -76.38598 3171 ft 4 kts 318°
2026-05-05 21:07 3.53375 -76.38581 3171 ft 4 kts 259°
2026-05-05 21:07 3.53389 -76.38566 3172 ft 4 kts 198°
2026-05-05 21:07 3.53415 -76.38560 3172 ft 4 kts 187°
2026-05-05 21:07 3.53441 -76.38556 3171 ft 4 kts 191°
2026-05-05 21:08 3.53465 -76.38551 3171 ft 1 kts 191°
2026-05-05 21:08 3.53466 -76.38551 3170 ft 0 kts 191°
2026-05-05 21:11 3.53465 -76.38551 3172 ft 0 kts 191°
2026-05-05 21:13 3.53457 -76.38553 3172 ft 5 kts 192°
2026-05-05 21:13 3.53394 -76.38556 3171 ft 9 kts 160°
2026-05-05 21:13 3.53349 -76.38514 3173 ft 8 kts 152°
2026-05-05 21:13 3.53293 -76.38509 3172 ft 9 kts 182°
2026-05-05 21:14 3.53221 -76.38520 3169 ft 11 kts 192°
2026-05-05 21:14 3.53137 -76.38537 3171 ft 13 kts 190°
2026-05-05 21:14 3.53040 -76.38554 3170 ft 15 kts 187°
2026-05-05 21:14 3.52968 -76.38534 3170 ft 6 kts 136°
2026-05-05 21:15 3.52955 -76.38492 3168 ft 6 kts 82°
2026-05-05 21:15 3.52983 -76.38449 3170 ft 9 kts 49°
2026-05-05 21:15 3.53023 -76.38395 3168 ft 10 kts 28°
2026-05-05 21:15 3.53059 -76.38386 3167 ft 0 kts 11°
2026-05-05 21:16 3.53120 -76.38374 3168 ft 33 kts 10°
2026-05-05 21:16 3.53571 -76.38298 3170 ft 97 kts
2026-05-05 21:16 3.54437 -76.38148 3172 ft 154 kts
2026-05-05 21:17 3.55587 -76.37950 3586 ft 167 kts
2026-05-05 21:17 3.56721 -76.37761 4271 ft 165 kts
2026-05-05 21:17 3.57865 -76.37572 4635 ft 174 kts
2026-05-05 21:17 3.59097 -76.37354 4832 ft 186 kts
2026-05-05 21:18 3.60419 -76.37120 5018 ft 200 kts
2026-05-05 21:18 3.61832 -76.36872 5268 ft 211 kts
2026-05-05 21:18 3.63306 -76.36612 5596 ft 219 kts
2026-05-05 21:18 3.64839 -76.36223 5797 ft 236 kts 15°
2026-05-05 21:19 3.66460 -76.35723 6012 ft 252 kts 16°
2026-05-05 21:19 3.68185 -76.35179 6249 ft 268 kts 17°
2026-05-05 21:19 3.69999 -76.34608 6612 ft 276 kts 17°
2026-05-05 21:19 3.71837 -76.34030 7192 ft 277 kts 17°
2026-05-05 21:20 3.73690 -76.33448 7696 ft 281 kts 17°
2026-05-05 21:20 3.75569 -76.32859 8224 ft 285 kts 18°
2026-05-05 21:20 3.77472 -76.32264 8814 ft 287 kts 18°
2026-05-05 21:20 3.79390 -76.31663 9348 ft 291 kts 18°
2026-05-05 21:21 3.81332 -76.31056 9913 ft 294 kts 19°
2026-05-05 21:21 3.83305 -76.30439 10319 ft 303 kts 19°
2026-05-05 21:21 3.85340 -76.29801 10542 ft 317 kts 19°
2026-05-05 21:21 3.87494 -76.29127 10773 ft 332 kts 19°
2026-05-05 21:22 3.89740 -76.28424 10989 ft 345 kts 19°
2026-05-05 21:22 3.92077 -76.27693 11192 ft 357 kts 19°
2026-05-05 21:22 3.94488 -76.26941 11378 ft 369 kts 18°
2026-05-05 21:22 3.96964 -76.26168 11673 ft 376 kts 19°
2026-05-05 21:23 3.99475 -76.25383 12094 ft 379 kts 19°
2026-05-05 21:23 4.01998 -76.24595 12526 ft 382 kts 19°
2026-05-05 21:23 4.04549 -76.23797 12943 ft 384 kts 19°
2026-05-05 21:23 4.07114 -76.22996 13360 ft 387 kts 19°
2026-05-05 21:24 4.09723 -76.22292 13783 ft 390 kts 14°
2026-05-05 21:24 4.12398 -76.21770 14161 ft 393 kts 12°
2026-05-05 21:24 4.15110 -76.21343 14550 ft 395 kts 10°
2026-05-05 21:24 4.17804 -76.20964 14924 ft 397 kts
2026-05-05 21:25 4.20542 -76.20592 15300 ft 398 kts
2026-05-05 21:25 4.23297 -76.20213 15656 ft 400 kts
2026-05-05 21:25 4.26059 -76.19823 16016 ft 402 kts 10°
2026-05-05 21:25 4.28832 -76.19422 16391 ft 404 kts 10°
2026-05-05 21:26 4.31621 -76.19012 16739 ft 405 kts 10°
2026-05-05 21:26 4.34417 -76.18598 17097 ft 407 kts 10°
2026-05-05 21:26 4.37226 -76.18179 17452 ft 409 kts 10°
2026-05-05 21:26 4.40049 -76.17758 17832 ft 410 kts 10°
2026-05-05 21:27 4.42881 -76.17336 18173 ft 412 kts 10°
2026-05-05 21:27 4.45731 -76.16912 18496 ft 414 kts 10°
2026-05-05 21:27 4.48587 -76.16486 18815 ft 416 kts 10°
2026-05-05 21:27 4.51451 -76.16060 19101 ft 418 kts 10°
2026-05-05 21:28 4.54340 -76.15632 19362 ft 421 kts 10°
2026-05-05 21:28 4.57244 -76.15201 19644 ft 422 kts 10°
2026-05-05 21:28 4.60158 -76.14768 19918 ft 425 kts 10°
2026-05-05 21:28 4.63086 -76.14333 20213 ft 427 kts 10°
2026-05-05 21:29 4.66033 -76.13895 20435 ft 430 kts 10°
2026-05-05 21:29 4.68999 -76.13457 20713 ft 431 kts 10°
2026-05-05 21:29 4.71972 -76.13015 21001 ft 433 kts 10°
2026-05-05 21:29 4.74965 -76.12569 21257 ft 435 kts
2026-05-05 21:30 4.77961 -76.12123 21553 ft 437 kts
2026-05-05 21:30 4.80973 -76.11674 21842 ft 439 kts
2026-05-05 21:30 4.84004 -76.11223 22121 ft 441 kts
2026-05-05 21:30 4.87006 -76.10776 22411 ft 443 kts
2026-05-05 21:31 4.90063 -76.10321 22710 ft 445 kts
2026-05-05 21:31 4.93134 -76.09864 23016 ft 447 kts
2026-05-05 21:31 4.96222 -76.09405 23280 ft 449 kts
2026-05-05 21:31 4.99323 -76.08944 23556 ft 451 kts
2026-05-05 21:32 5.02441 -76.08481 23804 ft 453 kts
2026-05-05 21:32 5.05568 -76.08016 24059 ft 454 kts
2026-05-05 21:32 5.08710 -76.07548 24300 ft 456 kts
2026-05-05 21:32 5.11852 -76.07080 24548 ft 458 kts
2026-05-05 21:33 5.14966 -76.06616 24818 ft 459 kts
2026-05-05 21:33 5.18144 -76.06143 25094 ft 461 kts
2026-05-05 21:33 5.21323 -76.05670 25435 ft 461 kts 10°
2026-05-05 21:33 5.24505 -76.05196 25708 ft 464 kts
2026-05-05 21:34 5.27709 -76.04719 26001 ft 465 kts 10°
2026-05-05 21:34 5.30922 -76.04239 26299 ft 468 kts
2026-05-05 21:34 5.34148 -76.03758 26610 ft 469 kts 10°
2026-05-05 21:34 5.37384 -76.03276 26903 ft 472 kts
2026-05-05 21:35 5.40638 -76.02791 27203 ft 474 kts 10°
2026-05-05 21:35 5.43905 -76.02304 27483 ft 476 kts
2026-05-05 21:35 5.47192 -76.01815 27809 ft 478 kts 10°
2026-05-05 21:35 5.50492 -76.01322 28108 ft 480 kts 10°
2026-05-05 21:36 5.53806 -76.00828 28423 ft 482 kts
2026-05-05 21:36 5.57089 -76.00338 28686 ft 485 kts
2026-05-05 21:36 5.60436 -75.99839 28984 ft 487 kts
2026-05-05 21:36 5.63797 -75.99339 29252 ft 489 kts
2026-05-05 21:37 5.67169 -75.98836 29547 ft 491 kts
2026-05-05 21:37 5.70569 -75.98329 29819 ft 493 kts
2026-05-05 21:37 5.73977 -75.97821 30085 ft 495 kts
2026-05-05 21:37 5.77398 -75.97310 30300 ft 497 kts
2026-05-05 21:38 5.80826 -75.96799 30538 ft 498 kts
2026-05-05 21:38 5.84264 -75.96286 30746 ft 500 kts
2026-05-05 21:38 5.87669 -75.95778 30958 ft 501 kts
2026-05-05 21:38 5.91122 -75.95263 31150 ft 502 kts
2026-05-05 21:39 5.94593 -75.94745 31281 ft 505 kts
2026-05-05 21:39 5.98072 -75.94225 31545 ft 505 kts
2026-05-05 21:39 6.01538 -75.93708 31861 ft 503 kts
2026-05-05 21:39 6.04995 -75.93192 32194 ft 501 kts
2026-05-05 21:40 6.08440 -75.92678 32470 ft 500 kts
2026-05-05 21:40 6.11881 -75.92163 32763 ft 499 kts
2026-05-05 21:40 6.15318 -75.91650 33017 ft 499 kts
2026-05-05 21:40 6.18752 -75.91138 33303 ft 497 kts
2026-05-05 21:41 6.22172 -75.90627 33562 ft 497 kts
2026-05-05 21:41 6.25593 -75.90115 33846 ft 496 kts
2026-05-05 21:41 6.29004 -75.89605 34069 ft 495 kts 10°
2026-05-05 21:41 6.32361 -75.89103 34301 ft 494 kts
2026-05-05 21:42 6.35759 -75.88595 34468 ft 494 kts
2026-05-05 21:42 6.39150 -75.88088 34688 ft 493 kts
2026-05-05 21:42 6.42548 -75.87579 34879 ft 492 kts
2026-05-05 21:42 6.45929 -75.87073 35078 ft 492 kts
2026-05-05 21:43 6.49312 -75.86568 35284 ft 491 kts
2026-05-05 21:43 6.52687 -75.86063 35471 ft 490 kts
2026-05-05 21:43 6.56060 -75.85559 35668 ft 489 kts
2026-05-05 21:43 6.59424 -75.85055 35814 ft 489 kts
2026-05-05 21:44 6.62795 -75.84550 36007 ft 489 kts
2026-05-05 21:44 6.66168 -75.84045 36142 ft 489 kts
2026-05-05 21:44 6.69494 -75.83547 36322 ft 488 kts
2026-05-05 21:44 6.72855 -75.83044 36436 ft 489 kts
2026-05-05 21:45 6.76216 -75.82541 36606 ft 488 kts
2026-05-05 21:45 6.79556 -75.81924 36705 ft 488 kts 15°
2026-05-05 21:45 6.82781 -75.80882 36839 ft 486 kts 23°
2026-05-05 21:45 6.85807 -75.79366 36938 ft 486 kts 32°
2026-05-05 21:46 6.91262 -75.75326 36977 ft 490 kts 39°
2026-05-05 21:46 6.96537 -75.70963 36971 ft 491 kts 40°
2026-05-05 21:47 7.01785 -75.66572 36970 ft 490 kts 40°
2026-05-05 21:47 7.07059 -75.62199 36942 ft 490 kts 40°
2026-05-05 21:48 7.12303 -75.57874 36942 ft 490 kts 40°
2026-05-05 21:48 7.17581 -75.53529 36940 ft 490 kts 39°
2026-05-05 21:49 7.22867 -75.49174 36929 ft 490 kts 39°
2026-05-05 21:49 7.28146 -75.44822 36930 ft 490 kts 40°
2026-05-05 21:50 7.33425 -75.40468 36933 ft 491 kts 40°
2026-05-05 21:50 7.38703 -75.36114 36906 ft 495 kts 39°
2026-05-05 21:51 7.44047 -75.31705 36888 ft 496 kts 39°
2026-05-05 21:51 7.49390 -75.27296 36867 ft 496 kts 39°
2026-05-05 21:52 7.56501 -75.21424 36867 ft 496 kts 39°
2026-05-05 21:53 7.61841 -75.17012 36856 ft 496 kts 39°
2026-05-05 21:53 7.67182 -75.12599 36843 ft 496 kts 39°
2026-05-05 21:54 7.72497 -75.08206 36843 ft 496 kts 39°
2026-05-05 21:54 7.77811 -75.03761 36832 ft 495 kts 40°
2026-05-05 21:55 7.83089 -74.99302 36840 ft 494 kts 40°
2026-05-05 21:55 7.88362 -74.94853 36839 ft 494 kts 40°
2026-05-05 21:56 7.93649 -74.90401 36827 ft 494 kts 40°
2026-05-05 21:56 7.98929 -74.85957 36828 ft 494 kts 40°
2026-05-05 21:57 8.04217 -74.81506 36828 ft 494 kts 40°
2026-05-05 21:57 8.09467 -74.77083 36833 ft 495 kts 40°
2026-05-05 21:58 8.14755 -74.72627 36832 ft 495 kts 40°
2026-05-05 21:58 8.20054 -74.68161 36825 ft 495 kts 40°
2026-05-05 21:59 8.25347 -74.63698 36834 ft 495 kts 40°
2026-05-05 21:59 8.30641 -74.59233 36835 ft 496 kts 40°
2026-05-05 22:00 8.35928 -74.54771 36826 ft 495 kts 40°
2026-05-05 22:00 8.41218 -74.50306 36830 ft 496 kts 39°
2026-05-05 22:01 8.46528 -74.45822 36846 ft 498 kts 39°
2026-05-05 22:01 8.51817 -74.41354 36829 ft 498 kts 39°
2026-05-05 22:02 8.57140 -74.36856 36829 ft 498 kts 39°
2026-05-05 22:02 8.62461 -74.32358 36824 ft 497 kts 40°
2026-05-05 22:03 8.67765 -74.27871 36824 ft 497 kts 40°
2026-05-05 22:03 8.73065 -74.23387 36822 ft 497 kts 40°
2026-05-05 22:04 8.78327 -74.18934 36815 ft 497 kts 40°
2026-05-05 22:04 8.83647 -74.14430 36815 ft 498 kts 40°
2026-05-05 22:05 8.88960 -74.09929 36813 ft 498 kts 40°
2026-05-05 22:05 8.94277 -74.05424 36810 ft 498 kts 40°
2026-05-05 22:06 8.99589 -74.00921 36812 ft 498 kts 40°
2026-05-05 22:06 9.05003 -73.96648 36808 ft 496 kts 32°
2026-05-05 22:07 9.10980 -73.93187 36810 ft 495 kts 28°
2026-05-05 22:07 9.17052 -73.89886 36809 ft 496 kts 28°
2026-05-05 22:08 9.23157 -73.86599 36812 ft 496 kts 28°
2026-05-05 22:08 9.29251 -73.83302 36812 ft 496 kts 28°
2026-05-05 22:09 9.35338 -73.79995 36812 ft 496 kts 28°
2026-05-05 22:09 9.41388 -73.76704 36817 ft 496 kts 28°
2026-05-05 22:10 9.47470 -73.73393 36813 ft 497 kts 28°
2026-05-05 22:10 9.53556 -73.70080 36812 ft 497 kts 28°
2026-05-05 22:11 9.59659 -73.66757 36814 ft 497 kts 28°
2026-05-05 22:11 9.65753 -73.63437 36819 ft 496 kts 28°
2026-05-05 22:12 9.71799 -73.60143 36818 ft 496 kts 28°
2026-05-05 22:12 9.77864 -73.56816 36816 ft 495 kts 28°
2026-05-05 22:13 9.83903 -73.53429 36816 ft 496 kts 28°
2026-05-05 22:13 9.89956 -73.50026 36833 ft 497 kts 28°
2026-05-05 22:14 9.96010 -73.46632 36830 ft 497 kts 28°
2026-05-05 22:14 10.02072 -73.43239 36845 ft 497 kts 28°
2026-05-05 22:15 10.08122 -73.39853 36846 ft 497 kts 28°
2026-05-05 22:15 10.14141 -73.36481 36877 ft 497 kts 28°
2026-05-05 22:16 10.20213 -73.33080 36868 ft 498 kts 28°
2026-05-05 22:16 10.26290 -73.29673 36864 ft 499 kts 28°
2026-05-05 22:17 10.32359 -73.26267 36861 ft 497 kts 28°
2026-05-05 22:17 10.38410 -73.22871 36857 ft 497 kts 28°
2026-05-05 22:18 10.44464 -73.19473 36856 ft 497 kts 28°
2026-05-05 22:18 10.50518 -73.16074 36861 ft 497 kts 28°
2026-05-05 22:19 10.56576 -73.12670 36930 ft 497 kts 28°
2026-05-05 22:19 10.62588 -73.09289 36931 ft 497 kts 28°
2026-05-05 22:20 10.68643 -73.05884 36917 ft 497 kts 28°
2026-05-05 22:20 10.74695 -73.02478 36917 ft 497 kts 28°
2026-05-05 22:21 10.80756 -72.99066 36917 ft 497 kts 28°
2026-05-05 22:21 10.86778 -72.95675 36914 ft 498 kts 27°
2026-05-05 22:22 10.92835 -72.92262 36907 ft 497 kts 28°
2026-05-05 22:22 10.98898 -72.88844 36897 ft 497 kts 28°
2026-05-05 22:23 11.04946 -72.85434 36894 ft 497 kts 27°
2026-05-05 22:23 11.11007 -72.82013 36889 ft 497 kts 28°
2026-05-05 22:24 11.17019 -72.78620 36885 ft 497 kts 28°
2026-05-05 22:24 11.23084 -72.75197 36886 ft 499 kts 27°
2026-05-05 22:25 11.29159 -72.71765 36874 ft 499 kts 27°
2026-05-05 22:25 11.35232 -72.68332 36870 ft 499 kts 27°
2026-05-05 22:26 11.41306 -72.64897 36866 ft 499 kts 27°
2026-05-05 22:26 11.47384 -72.61455 36867 ft 499 kts 27°
2026-05-05 22:27 11.53418 -72.58038 36869 ft 500 kts 27°
2026-05-05 22:27 11.59505 -72.54591 36873 ft 501 kts 27°
2026-05-05 22:28 11.65605 -72.51134 36876 ft 501 kts 27°
2026-05-05 22:28 11.71706 -72.47674 36875 ft 501 kts 27°
2026-05-05 22:29 11.77802 -72.44215 36876 ft 501 kts 27°
2026-05-05 22:29 11.83906 -72.40750 36876 ft 501 kts 27°
2026-05-05 22:30 11.89983 -72.37299 36878 ft 503 kts 27°
2026-05-05 22:30 11.96099 -72.33824 36881 ft 503 kts 27°
2026-05-05 22:31 12.02219 -72.30345 36882 ft 503 kts 27°
2026-05-05 22:31 12.08347 -72.26859 36886 ft 503 kts 27°
2026-05-05 22:32 12.14463 -72.23378 36889 ft 503 kts 27°
2026-05-05 22:32 12.20538 -72.19918 36896 ft 503 kts 26°
2026-05-05 22:33 12.26665 -72.16428 36895 ft 504 kts 27°
2026-05-05 22:33 12.32800 -72.12932 36900 ft 504 kts 26°
2026-05-05 22:34 12.38932 -72.09436 36903 ft 504 kts 27°
2026-05-05 22:34 12.45067 -72.05936 36909 ft 504 kts 27°
2026-05-05 22:35 12.51196 -72.02437 36908 ft 504 kts 27°
2026-05-05 22:35 12.57324 -71.98936 36908 ft 503 kts 26°
2026-05-05 22:36 12.63393 -71.95467 36917 ft 503 kts 26°
2026-05-05 22:36 12.69502 -71.91973 36917 ft 503 kts 26°
2026-05-05 22:37 12.75612 -71.88476 36920 ft 503 kts 26°
2026-05-05 22:37 12.81406 -71.84441 36920 ft 508 kts 40°
2026-05-05 22:38 12.86031 -71.78933 36926 ft 511 kts 51°
2026-05-05 22:38 12.90221 -71.73039 36924 ft 512 kts 52°
2026-05-05 22:39 12.94353 -71.67083 36922 ft 512 kts 52°
2026-05-05 22:39 12.98473 -71.61185 36931 ft 512 kts 52°
2026-05-05 22:40 13.02638 -71.55258 36922 ft 512 kts 52°
2026-05-05 22:40 13.06816 -71.49319 36929 ft 513 kts 51°
2026-05-05 22:41 13.10999 -71.43370 36936 ft 513 kts 52°
2026-05-05 22:41 13.15178 -71.37436 36936 ft 513 kts 52°
2026-05-05 22:42 13.19326 -71.31541 36934 ft 513 kts 52°
2026-05-05 22:42 13.23507 -71.25596 36939 ft 514 kts 52°
2026-05-05 22:43 13.27006 -71.20613 36939 ft 514 kts 52°
2026-05-05 22:43 13.31189 -71.14653 36943 ft 514 kts 52°
2026-05-05 22:44 13.35344 -71.08729 36943 ft 514 kts 52°
2026-05-05 22:44 13.39519 -71.02759 36944 ft 514 kts 52°
2026-05-05 22:45 13.43690 -70.96798 36949 ft 514 kts 52°
2026-05-05 22:45 13.47858 -70.90838 36954 ft 514 kts 52°
2026-05-05 22:46 13.52033 -70.84866 36954 ft 514 kts 52°
2026-05-05 22:46 13.56208 -70.78892 36956 ft 514 kts 53°
2026-05-05 22:47 13.60379 -70.72917 36960 ft 514 kts 52°
2026-05-05 22:47 13.64520 -70.66982 36959 ft 514 kts 52°
2026-05-05 22:48 13.68691 -70.61002 36959 ft 514 kts 52°
2026-05-05 22:48 13.72854 -70.55026 36964 ft 514 kts 52°
2026-05-05 22:49 13.77018 -70.49048 36966 ft 513 kts 52°
2026-05-05 22:49 13.81178 -70.43069 36966 ft 513 kts 52°
2026-05-05 22:50 13.85318 -70.37122 36970 ft 514 kts 52°
2026-05-05 22:50 13.89476 -70.31144 36974 ft 513 kts 52°
2026-05-05 22:51 13.93638 -70.25152 36973 ft 513 kts 52°
2026-05-05 22:51 13.97790 -70.19173 36974 ft 513 kts 53°
2026-05-05 22:52 14.01914 -70.13235 36974 ft 513 kts 52°
2026-05-05 22:52 14.06073 -70.07239 36973 ft 513 kts 52°
2026-05-05 22:53 14.10235 -70.01247 36977 ft 513 kts 52°
2026-05-05 22:53 14.14388 -69.95265 36977 ft 514 kts 52°
2026-05-05 22:54 14.18500 -69.89309 36979 ft 513 kts 52°
2026-05-05 22:54 14.22642 -69.83314 36985 ft 514 kts 53°
2026-05-05 22:55 14.26789 -69.77310 36986 ft 514 kts 53°
2026-05-05 22:55 14.30933 -69.71309 36985 ft 513 kts 53°
2026-05-05 22:56 14.35080 -69.65301 36991 ft 513 kts 53°
2026-05-05 22:56 14.39221 -69.59298 36992 ft 514 kts 53°
2026-05-05 22:57 14.43364 -69.53286 36992 ft 514 kts 53°
2026-05-05 22:57 14.47508 -69.47271 36993 ft 514 kts 53°
2026-05-05 22:58 14.51654 -69.41246 36994 ft 514 kts 53°
2026-05-05 22:58 14.55770 -69.35262 36999 ft 514 kts 53°
2026-05-05 22:59 14.59909 -69.29240 36998 ft 514 kts 53°
2026-05-05 22:59 14.64040 -69.23221 37002 ft 514 kts 53°
2026-05-05 23:00 14.70256 -69.14166 37004 ft 514 kts 53°
2026-05-05 23:00 14.74390 -69.08140 37008 ft 514 kts 53°
2026-05-05 23:01 14.78496 -69.02149 37007 ft 514 kts 53°
2026-05-05 23:01 14.82633 -68.96115 37009 ft 514 kts 53°
2026-05-05 23:02 14.86769 -68.90087 37010 ft 514 kts 53°
2026-05-05 23:02 14.90914 -68.84057 37010 ft 514 kts 53°
2026-05-05 23:03 14.95045 -68.78023 37009 ft 514 kts 53°
2026-05-05 23:03 14.99162 -68.71976 37016 ft 515 kts 53°
2026-05-05 23:04 15.03288 -68.65918 37014 ft 515 kts 53°
2026-05-05 23:04 15.07415 -68.59860 37015 ft 515 kts 53°
2026-05-05 23:05 15.11543 -68.53798 37017 ft 515 kts 53°
2026-05-05 23:05 15.15642 -68.47774 37019 ft 515 kts 53°
2026-05-05 23:06 15.19763 -68.41714 37022 ft 514 kts 53°
2026-05-05 23:06 15.23898 -68.35673 37023 ft 514 kts 52°
2026-05-05 23:07 15.28104 -68.29669 37021 ft 515 kts 52°
2026-05-05 23:07 15.32320 -68.23661 37021 ft 515 kts 52°
2026-05-05 23:08 15.36526 -68.17637 37016 ft 515 kts 52°
2026-05-05 23:08 15.40721 -68.11613 37020 ft 515 kts 52°
2026-05-05 23:09 15.44885 -68.05626 37019 ft 515 kts 53°
2026-05-05 23:09 15.49074 -67.99599 37027 ft 515 kts 53°
2026-05-05 23:10 15.53262 -67.93569 37026 ft 515 kts 53°
2026-05-05 23:10 15.57457 -67.87526 37029 ft 517 kts 53°
2026-05-05 23:11 15.61654 -67.81475 37029 ft 517 kts 53°
2026-05-05 23:11 15.65856 -67.75409 37032 ft 517 kts 53°
2026-05-05 23:12 15.70059 -67.69339 37031 ft 517 kts 53°
2026-05-05 23:12 15.74255 -67.63274 37035 ft 517 kts 53°
2026-05-05 23:13 15.78426 -67.57240 37034 ft 517 kts 53°
2026-05-05 23:13 15.82626 -67.51160 37043 ft 517 kts 53°
2026-05-05 23:14 15.86717 -67.44989 37037 ft 519 kts 56°
2026-05-05 23:14 15.90566 -67.38633 37038 ft 519 kts 57°
2026-05-05 23:15 15.94401 -67.32276 37036 ft 519 kts 56°
2026-05-05 23:15 15.98255 -67.25981 37045 ft 519 kts 56°
2026-05-05 23:16 16.02174 -67.19622 37041 ft 519 kts 56°
2026-05-05 23:16 16.06040 -67.13350 37045 ft 518 kts 56°
2026-05-05 23:17 16.09925 -67.07039 37056 ft 518 kts 56°
2026-05-05 23:17 16.13821 -67.00703 37045 ft 520 kts 56°
2026-05-05 23:18 16.17723 -66.94350 37047 ft 521 kts 56°
2026-05-05 23:18 16.21624 -66.87994 37051 ft 521 kts 56°
2026-05-05 23:19 16.25519 -66.81640 37049 ft 520 kts 56°
2026-05-05 23:19 16.29406 -66.75294 37051 ft 520 kts 56°
2026-05-05 23:20 16.33296 -66.68940 37054 ft 520 kts 56°
2026-05-05 23:20 16.37154 -66.62630 37062 ft 520 kts 56°
2026-05-05 23:21 16.41045 -66.56263 37055 ft 522 kts 56°
2026-05-05 23:21 16.44939 -66.49885 37052 ft 521 kts 56°
2026-05-05 23:22 16.48824 -66.43513 37060 ft 521 kts 56°
2026-05-05 23:22 16.52710 -66.37136 37056 ft 521 kts 56°
2026-05-05 23:23 16.56595 -66.30755 37060 ft 521 kts 57°
2026-05-05 23:23 16.60480 -66.24368 37059 ft 521 kts 57°
2026-05-05 23:24 16.64356 -66.17989 37059 ft 520 kts 57°
2026-05-05 23:24 16.68210 -66.11642 37062 ft 520 kts 57°
2026-05-05 23:25 16.72078 -66.05265 37061 ft 520 kts 57°
2026-05-05 23:25 16.75947 -65.98880 37062 ft 520 kts 57°
2026-05-05 23:26 16.79814 -65.92493 37060 ft 520 kts 57°
2026-05-05 23:26 16.83673 -65.86114 37066 ft 519 kts 57°
2026-05-05 23:27 16.87527 -65.79738 37066 ft 519 kts 57°
2026-05-05 23:27 16.91379 -65.73358 37066 ft 519 kts 57°
2026-05-05 23:28 16.95234 -65.66968 37067 ft 521 kts 57°
2026-05-05 23:28 16.99095 -65.60562 37069 ft 521 kts 57°
2026-05-05 23:29 17.02928 -65.54196 37072 ft 520 kts 57°
2026-05-05 23:29 17.06774 -65.47803 37074 ft 519 kts 57°
2026-05-05 23:30 17.09969 -65.42487 37074 ft 519 kts 57°
2026-05-05 23:30 17.13810 -65.36093 37072 ft 519 kts 57°
2026-05-05 23:31 17.17656 -65.29682 37074 ft 520 kts 57°
2026-05-05 23:31 17.21499 -65.23270 37076 ft 520 kts 57°
2026-05-05 23:32 17.25342 -65.16854 37075 ft 520 kts 57°
2026-05-05 23:32 17.29163 -65.10466 37079 ft 520 kts 57°
2026-05-05 23:33 17.32999 -65.04049 37080 ft 520 kts 57°
2026-05-05 23:33 17.36842 -64.97614 37081 ft 520 kts 57°
2026-05-05 23:34 17.40652 -64.91227 37078 ft 518 kts 57°
2026-05-05 23:34 17.44471 -64.84821 37081 ft 519 kts 57°
2026-05-05 23:35 17.48300 -64.78390 37085 ft 520 kts 57°
2026-05-05 23:35 17.52132 -64.71948 37082 ft 521 kts 57°
2026-05-05 23:36 17.55963 -64.65502 37085 ft 521 kts 57°
2026-05-05 23:36 17.59790 -64.59057 37085 ft 521 kts 57°
2026-05-05 23:37 17.63614 -64.52609 37085 ft 521 kts 57°
2026-05-05 23:37 17.67438 -64.46157 37083 ft 521 kts 57°
2026-05-05 23:38 17.71240 -64.39735 37089 ft 522 kts 57°
2026-05-05 23:38 17.75077 -64.33247 37088 ft 523 kts 57°
2026-05-05 23:39 17.78903 -64.26771 37086 ft 521 kts 57°
2026-05-05 23:39 17.82720 -64.20308 37087 ft 521 kts 57°
2026-05-05 23:40 17.86531 -64.13844 37087 ft 521 kts 57°
2026-05-05 23:40 17.90341 -64.07374 37090 ft 521 kts 58°
2026-05-05 23:41 17.94146 -64.00909 37095 ft 520 kts 58°
2026-05-05 23:41 17.97953 -63.94434 37094 ft 521 kts 58°
2026-05-05 23:42 18.01760 -63.87953 37099 ft 521 kts 58°
2026-05-05 23:42 18.05543 -63.81505 37080 ft 521 kts 58°
2026-05-05 23:43 18.09352 -63.75007 37093 ft 521 kts 58°
2026-05-05 23:43 18.13149 -63.68522 37087 ft 520 kts 58°
2026-05-05 23:44 18.16934 -63.62052 37091 ft 519 kts 58°
2026-05-05 23:44 18.20718 -63.55579 37095 ft 521 kts 58°
2026-05-05 23:45 18.24516 -63.49073 37078 ft 522 kts 58°
2026-05-05 23:45 18.28310 -63.42567 37091 ft 522 kts 58°
2026-05-05 23:46 18.32094 -63.36073 37089 ft 520 kts 58°
2026-05-05 23:46 18.35872 -63.29581 37080 ft 520 kts 58°
2026-05-05 23:47 18.39619 -63.23137 37078 ft 520 kts 58°
2026-05-05 23:47 18.43419 -63.16651 37092 ft 520 kts 56°
2026-05-05 23:48 18.47516 -63.10349 37095 ft 521 kts 54°
2026-05-05 23:48 18.51693 -63.04124 37096 ft 520 kts 54°
2026-05-05 23:49 18.55824 -62.97881 37105 ft 520 kts 54°
2026-05-05 23:49 18.59928 -62.91605 37122 ft 520 kts 55°
2026-05-05 23:50 18.63996 -62.85357 37109 ft 520 kts 55°
2026-05-05 23:50 18.68088 -62.79066 37112 ft 519 kts 55°
2026-05-05 23:51 18.72182 -62.72769 37114 ft 520 kts 55°
2026-05-05 23:51 18.76255 -62.66500 37113 ft 520 kts 55°
2026-05-05 23:52 18.80346 -62.60197 37115 ft 520 kts 55°
2026-05-05 23:52 18.84432 -62.53896 37117 ft 520 kts 55°
2026-05-05 23:53 18.88519 -62.47587 37113 ft 518 kts 55°
2026-05-05 23:53 18.92552 -62.41354 37118 ft 518 kts 55°
2026-05-05 23:54 18.96621 -62.35059 37122 ft 519 kts 55°
2026-05-05 23:54 19.00695 -62.28751 37123 ft 520 kts 55°
2026-05-05 23:55 19.04772 -62.22431 37115 ft 520 kts 55°
2026-05-05 23:55 19.08837 -62.16124 37122 ft 518 kts 55°
2026-05-05 23:56 19.12896 -62.09820 37123 ft 517 kts 55°
2026-05-05 23:56 19.16921 -62.03561 37123 ft 517 kts 55°
2026-05-05 23:57 19.20967 -61.97264 37126 ft 517 kts 55°
2026-05-05 23:57 19.25019 -61.90951 37135 ft 517 kts 55°
2026-05-05 23:58 19.29054 -61.84659 37126 ft 517 kts 55°
2026-05-05 23:58 19.33116 -61.78376 37123 ft 516 kts 52°
2026-05-05 23:59 19.37890 -61.72769 37140 ft 515 kts 45°
2026-05-05 23:59 19.42959 -61.67393 37132 ft 516 kts 44°
2026-05-06 00:00 19.48081 -61.62050 37133 ft 517 kts 44°
2026-05-06 00:00 19.53204 -61.56688 37136 ft 517 kts 44°
2026-05-06 00:01 19.58319 -61.51309 37133 ft 517 kts 44°
2026-05-06 00:01 19.63389 -61.45964 37136 ft 517 kts 44°
2026-05-06 00:02 19.68488 -61.40584 37135 ft 518 kts 44°
2026-05-06 00:02 19.73607 -61.35178 37136 ft 519 kts 44°
2026-05-06 00:03 19.78728 -61.29765 37138 ft 518 kts 44°
2026-05-06 00:03 19.83833 -61.24365 37140 ft 518 kts 44°
2026-05-06 00:04 19.88907 -61.18991 37142 ft 518 kts 44°
2026-05-06 00:04 19.94013 -61.13578 37143 ft 519 kts 44°
2026-05-06 00:05 20.01687 -61.05434 37144 ft 519 kts 44°
2026-05-06 00:06 20.06805 -60.99996 37144 ft 518 kts 44°
2026-05-06 00:06 20.11904 -60.94573 37151 ft 518 kts 44°
2026-05-06 00:07 20.16967 -60.89182 37156 ft 518 kts 44°
2026-05-06 00:07 20.22080 -60.83733 37153 ft 520 kts 44°
2026-05-06 00:08 20.27195 -60.78277 37151 ft 520 kts 44°
2026-05-06 00:08 20.32312 -60.72814 37151 ft 520 kts 44°
2026-05-06 00:09 20.37405 -60.67369 37152 ft 518 kts 44°
2026-05-06 00:09 20.42463 -60.61958 37159 ft 519 kts 44°
2026-05-06 00:10 20.47569 -60.56490 37154 ft 520 kts 44°
2026-05-06 00:10 20.52682 -60.51009 37157 ft 520 kts 44°
2026-05-06 00:11 20.57788 -60.45529 37153 ft 520 kts 44°
2026-05-06 00:11 20.62857 -60.40083 37157 ft 519 kts 44°
2026-05-06 00:12 20.67951 -60.34606 37161 ft 520 kts 44°
2026-05-06 00:12 20.73053 -60.29115 37160 ft 520 kts 44°
2026-05-06 00:13 20.78150 -60.23623 37158 ft 520 kts 44°
2026-05-06 00:13 20.83212 -60.18163 37159 ft 520 kts 44°
2026-05-06 00:14 20.88307 -60.12663 37158 ft 519 kts 44°
2026-05-06 00:14 20.93393 -60.07166 37164 ft 520 kts 44°
2026-05-06 00:15 20.98478 -60.01663 37166 ft 520 kts 44°
2026-05-06 00:15 21.03242 -59.95820 37165 ft 521 kts 49°
2026-05-06 00:16 21.07867 -59.89847 37172 ft 521 kts 50°
2026-05-06 00:16 21.12465 -59.83851 37180 ft 520 kts 50°
2026-05-06 00:17 21.17059 -59.77860 37173 ft 520 kts 50°
2026-05-06 00:17 21.21659 -59.71865 37173 ft 521 kts 50°
2026-05-06 00:18 21.26236 -59.65899 37173 ft 521 kts 50°
2026-05-06 00:18 21.30835 -59.59896 37169 ft 521 kts 50°
2026-05-06 00:19 21.35431 -59.53893 37180 ft 520 kts 50°
2026-05-06 00:19 21.40024 -59.47884 37175 ft 520 kts 50°
2026-05-06 00:20 21.44615 -59.41873 37175 ft 520 kts 50°
2026-05-06 00:20 21.49179 -59.35890 37175 ft 521 kts 50°
2026-05-06 00:21 21.53766 -59.29871 37174 ft 520 kts 50°
2026-05-06 00:21 21.57571 -59.24873 37176 ft 519 kts 50°
2026-05-06 00:22 21.62139 -59.18866 37176 ft 519 kts 50°
2026-05-06 00:22 21.66709 -59.12849 37182 ft 519 kts 50°
2026-05-06 00:23 21.71273 -59.06835 37184 ft 519 kts 50°
2026-05-06 00:23 21.75834 -59.00817 37179 ft 519 kts 50°
2026-05-06 00:24 21.80391 -58.94799 37183 ft 518 kts 50°
2026-05-06 00:24 21.84941 -58.88782 37181 ft 519 kts 50°
2026-05-06 00:25 21.89493 -58.82757 37179 ft 519 kts 50°
2026-05-06 00:25 21.94048 -58.76721 37184 ft 519 kts 50°
2026-05-06 00:26 21.98597 -58.70685 37185 ft 519 kts 50°
2026-05-06 00:26 22.03119 -58.64678 37191 ft 519 kts 50°
2026-05-06 00:27 22.07675 -58.58621 37190 ft 520 kts 50°
2026-05-06 00:27 22.12231 -58.52555 37185 ft 520 kts 50°
2026-05-06 00:28 22.16788 -58.46482 37181 ft 520 kts 50°
2026-05-06 00:28 22.21300 -58.40461 37187 ft 519 kts 50°
2026-05-06 00:29 22.25839 -58.34398 37189 ft 519 kts 50°
2026-05-06 00:29 22.30379 -58.28327 37191 ft 519 kts 50°
2026-05-06 00:30 22.34914 -58.22256 37189 ft 519 kts 50°
2026-05-06 00:30 22.39451 -58.16175 37188 ft 519 kts 51°
2026-05-06 00:31 22.43975 -58.10104 37197 ft 518 kts 51°
2026-05-06 00:31 22.48500 -58.04024 37194 ft 519 kts 51°
2026-05-06 00:32 22.53026 -57.97937 37196 ft 519 kts 51°
2026-05-06 00:32 22.57546 -57.91850 37195 ft 519 kts 51°
2026-05-06 00:33 22.62037 -57.85795 37195 ft 518 kts 51°
2026-05-06 00:33 22.66547 -57.79709 37212 ft 518 kts 51°
2026-05-06 00:34 22.71064 -57.73604 37195 ft 519 kts 51°
2026-05-06 00:34 22.75577 -57.67499 37199 ft 519 kts 51°
2026-05-06 00:35 22.80097 -57.61377 37195 ft 519 kts 51°
2026-05-06 00:35 22.84575 -57.55304 37203 ft 518 kts 51°
2026-05-06 00:36 22.89073 -57.49198 37212 ft 519 kts 51°
2026-05-06 00:36 22.93576 -57.43076 37203 ft 519 kts 51°
2026-05-06 00:37 22.98085 -57.36940 37192 ft 519 kts 51°
2026-05-06 00:37 23.02582 -57.30812 37204 ft 519 kts 51°
2026-05-06 00:38 23.07077 -57.24681 37204 ft 519 kts 51°
2026-05-06 00:38 23.11551 -57.18571 37208 ft 519 kts 51°
2026-05-06 00:39 23.16051 -57.12417 37200 ft 520 kts 51°
2026-05-06 00:39 23.20548 -57.06261 37212 ft 519 kts 51°
2026-05-06 00:40 23.25042 -57.00100 37211 ft 519 kts 51°
2026-05-06 00:40 23.29532 -56.93939 37214 ft 519 kts 51°
2026-05-06 00:41 23.33994 -56.87808 37209 ft 520 kts 51°
2026-05-06 00:41 23.38484 -56.81630 37212 ft 520 kts 51°
2026-05-06 00:42 23.42967 -56.75455 37213 ft 519 kts 51°
2026-05-06 00:42 23.47450 -56.69274 37210 ft 519 kts 51°
2026-05-06 00:43 23.51934 -56.63083 37218 ft 520 kts 51°
2026-05-06 00:43 23.56411 -56.56894 37211 ft 520 kts 51°
2026-05-06 00:44 23.60891 -56.50692 37217 ft 520 kts 51°
2026-05-06 00:44 23.65365 -56.44492 37215 ft 519 kts 51°
2026-05-06 00:45 23.69807 -56.38330 37215 ft 519 kts 51°
2026-05-06 00:45 23.74270 -56.32129 37215 ft 519 kts 51°
2026-05-06 00:46 23.78730 -56.25924 37213 ft 519 kts 51°
2026-05-06 00:46 23.83180 -56.19727 37222 ft 519 kts 51°
2026-05-06 00:47 23.87643 -56.13504 37220 ft 519 kts 51°
2026-05-06 00:47 23.92065 -56.07331 37214 ft 519 kts 51°
2026-05-06 00:48 23.96518 -56.01105 37219 ft 520 kts 51°
2026-05-06 00:48 24.00970 -55.94873 37219 ft 520 kts 51°
2026-05-06 00:49 24.05423 -55.88633 37227 ft 520 kts 51°
2026-05-06 00:49 24.09873 -55.82389 37228 ft 520 kts 51°
2026-05-06 00:50 24.14321 -55.76140 37221 ft 521 kts 51°
2026-05-06 00:50 24.18767 -55.69885 37224 ft 520 kts 51°
2026-05-06 00:51 24.23179 -55.63670 37227 ft 520 kts 51°
2026-05-06 00:51 24.27615 -55.57414 37236 ft 520 kts 51°
2026-05-06 00:52 24.32055 -55.51145 37228 ft 521 kts 51°
2026-05-06 00:52 24.36496 -55.44865 37224 ft 520 kts 51°
2026-05-06 00:53 24.40932 -55.38585 37230 ft 520 kts 51°
2026-05-06 00:53 24.45357 -55.32311 37230 ft 520 kts 51°
2026-05-06 00:54 24.49790 -55.26020 37224 ft 521 kts 51°
2026-05-06 00:54 24.54191 -55.19764 37230 ft 520 kts 51°
2026-05-06 00:55 24.58615 -55.13469 37226 ft 520 kts 51°
2026-05-06 00:55 24.63033 -55.07174 37232 ft 520 kts 51°
2026-05-06 00:56 24.67453 -55.00866 37226 ft 521 kts 52°
2026-05-06 00:56 24.71873 -54.94552 37228 ft 520 kts 51°
2026-05-06 00:57 24.76281 -54.88246 37239 ft 520 kts 52°
2026-05-06 00:57 24.80683 -54.81940 37232 ft 520 kts 52°
2026-05-06 00:58 24.85059 -54.75664 37244 ft 520 kts 52°
2026-05-06 00:58 24.89467 -54.69334 37233 ft 520 kts 52°
2026-05-06 00:59 24.93870 -54.63002 37240 ft 519 kts 52°
2026-05-06 00:59 24.98265 -54.56673 37242 ft 520 kts 52°
2026-05-06 01:00 25.02627 -54.50384 37243 ft 520 kts 52°
2026-05-06 01:00 25.07019 -54.44044 37245 ft 520 kts 52°
2026-05-06 01:01 25.11409 -54.37696 37237 ft 520 kts 52°
2026-05-06 01:01 25.15796 -54.31346 37237 ft 520 kts 52°
2026-05-06 01:02 25.20178 -54.24993 37235 ft 520 kts 52°
2026-05-06 01:02 25.24561 -54.18632 37237 ft 520 kts 52°
2026-05-06 01:03 25.28941 -54.12265 37241 ft 521 kts 52°
2026-05-06 01:03 25.33326 -54.05884 37241 ft 521 kts 52°
2026-05-06 01:04 25.37679 -53.99540 37241 ft 521 kts 52°
2026-05-06 01:04 25.42054 -53.93156 37253 ft 520 kts 52°
2026-05-06 01:05 25.46431 -53.86759 37237 ft 521 kts 52°
2026-05-06 01:05 25.50829 -53.80323 37254 ft 521 kts 52°
2026-05-06 01:06 25.55193 -53.73928 37248 ft 521 kts 52°
2026-05-06 01:06 25.59555 -53.67529 37243 ft 519 kts 52°
2026-05-06 01:07 25.63906 -53.61135 37244 ft 519 kts 52°
2026-05-06 01:07 25.67517 -53.55823 37244 ft 519 kts 52°
2026-05-06 01:08 25.71854 -53.49434 37236 ft 519 kts 52°
2026-05-06 01:08 25.76195 -53.43031 37244 ft 520 kts 52°
2026-05-06 01:09 25.80545 -53.36605 37244 ft 521 kts 52°
2026-05-06 01:09 25.84900 -53.30164 37262 ft 521 kts 52°
2026-05-06 01:10 25.89252 -53.23718 37252 ft 521 kts 52°
2026-05-06 01:10 25.93560 -53.17328 37251 ft 520 kts 52°
2026-05-06 01:11 25.97899 -53.10883 37253 ft 521 kts 52°
2026-05-06 01:11 26.02235 -53.04435 37251 ft 521 kts 52°
2026-05-06 01:12 26.06568 -52.97980 37246 ft 520 kts 52°
2026-05-06 01:12 26.10894 -52.91528 37255 ft 520 kts 52°
2026-05-06 01:13 26.15215 -52.85074 37254 ft 520 kts 52°
2026-05-06 01:13 26.19538 -52.78608 37255 ft 520 kts 52°
2026-05-06 01:14 26.26013 -52.68905 37261 ft 519 kts 52°
2026-05-06 01:14 26.30300 -52.62470 37260 ft 520 kts 52°
2026-05-06 01:15 26.34621 -52.55975 37257 ft 520 kts 52°
2026-05-06 01:15 26.38930 -52.49489 37256 ft 520 kts 52°
2026-05-06 01:16 26.43230 -52.43007 37265 ft 519 kts 52°
2026-05-06 01:16 26.47530 -52.36516 37263 ft 520 kts 52°
2026-05-06 01:17 26.51811 -52.30043 37260 ft 520 kts 52°
2026-05-06 01:17 26.56107 -52.23539 37261 ft 519 kts 52°
2026-05-06 01:18 26.60391 -52.17044 37263 ft 520 kts 52°
2026-05-06 01:18 26.64661 -52.10562 37262 ft 521 kts 52°
2026-05-06 01:19 26.68951 -52.04038 37259 ft 521 kts 52°
2026-05-06 01:19 26.73240 -51.97507 37265 ft 519 kts 52°
2026-05-06 01:20 26.77519 -51.90983 37263 ft 520 kts 52°
2026-05-06 01:20 26.81795 -51.84452 37265 ft 520 kts 52°
2026-05-06 01:21 26.86056 -51.77936 37264 ft 520 kts 52°
2026-05-06 01:21 26.90325 -51.71397 37268 ft 519 kts 52°
2026-05-06 01:22 26.94592 -51.64852 37268 ft 520 kts 52°
2026-05-06 01:22 26.98864 -51.58290 37268 ft 521 kts 52°
2026-05-06 01:23 27.03106 -51.51766 37268 ft 519 kts 52°
2026-05-06 01:23 27.07357 -51.45215 37277 ft 519 kts 52°
2026-05-06 01:24 27.11618 -51.38642 37268 ft 520 kts 52°
2026-05-06 01:24 27.15849 -51.32105 37266 ft 520 kts 52°
2026-05-06 01:25 27.20094 -51.25536 37268 ft 519 kts 52°
2026-05-06 01:25 27.24329 -51.18972 37268 ft 519 kts 52°
2026-05-06 01:26 27.28563 -51.12402 37271 ft 519 kts 52°
2026-05-06 01:26 27.32795 -51.05825 37271 ft 519 kts 52°
2026-05-06 01:27 27.37021 -50.99246 37268 ft 519 kts 52°
2026-05-06 01:27 27.41248 -50.92656 37268 ft 520 kts 52°
2026-05-06 01:28 27.45479 -50.86050 37268 ft 520 kts 52°
2026-05-06 01:28 27.49713 -50.79429 37271 ft 519 kts 53°
2026-05-06 01:29 27.53930 -50.72826 37279 ft 519 kts 53°
2026-05-06 01:29 27.58149 -50.66209 37273 ft 520 kts 53°
2026-05-06 01:30 27.62338 -50.59630 37273 ft 519 kts 53°
2026-05-06 01:30 27.66547 -50.53008 37276 ft 519 kts 53°
2026-05-06 01:31 27.70754 -50.46380 37275 ft 519 kts 53°
2026-05-06 01:31 27.74960 -50.39743 37276 ft 520 kts 53°
2026-05-06 01:32 27.79137 -50.33143 37276 ft 519 kts 53°
2026-05-06 01:32 27.83331 -50.26504 37276 ft 519 kts 53°
2026-05-06 01:33 27.87526 -50.19856 37277 ft 520 kts 53°
2026-05-06 01:33 27.91718 -50.13201 37274 ft 519 kts 53°
2026-05-06 01:34 27.95902 -50.06549 37279 ft 519 kts 53°
2026-05-06 01:34 28.00085 -49.99888 37355 ft 520 kts 53°
2026-05-06 01:35 28.02136 -49.96516 37563 ft 519 kts 55°
2026-05-06 01:35 28.04062 -49.93131 37892 ft 516 kts 56°
2026-05-06 01:35 28.05960 -49.89692 38145 ft 514 kts 56°
2026-05-06 01:35 28.07845 -49.86252 38342 ft 514 kts 56°
2026-05-06 01:36 28.09736 -49.82816 38528 ft 513 kts 56°
2026-05-06 01:36 28.11637 -49.79387 38689 ft 513 kts 56°
2026-05-06 01:36 28.13542 -49.75971 38868 ft 513 kts 56°
2026-05-06 01:36 28.15453 -49.72557 38987 ft 513 kts 55°
2026-05-06 01:37 28.17366 -49.69147 39133 ft 512 kts 55°
2026-05-06 01:37 28.19277 -49.65738 39244 ft 512 kts 55°
2026-05-06 01:37 28.23087 -49.58941 39276 ft 515 kts 55°
2026-05-06 01:38 28.26921 -49.52082 39283 ft 514 kts 55°
2026-05-06 01:38 28.30749 -49.45221 39280 ft 514 kts 55°
2026-05-06 01:39 28.34574 -49.38354 39281 ft 514 kts 55°
2026-05-06 01:39 28.38397 -49.31480 39280 ft 515 kts 55°
2026-05-06 01:40 28.42214 -49.24605 39286 ft 515 kts 55°
2026-05-06 01:40 28.46009 -49.17759 39287 ft 515 kts 55°
2026-05-06 01:41 28.49833 -49.10849 39286 ft 515 kts 55°
2026-05-06 01:41 28.53649 -49.03943 39285 ft 514 kts 55°
2026-05-06 01:42 28.57454 -48.97043 39294 ft 515 kts 55°
2026-05-06 01:42 28.61238 -48.90173 39282 ft 515 kts 55°
2026-05-06 01:43 28.65039 -48.83260 39293 ft 515 kts 55°
2026-05-06 01:43 28.68840 -48.76334 39287 ft 515 kts 55°
2026-05-06 01:44 28.72638 -48.69404 39278 ft 515 kts 55°
2026-05-06 01:44 28.76426 -48.62480 39292 ft 515 kts 56°
2026-05-06 01:45 28.80207 -48.55556 39288 ft 514 kts 55°
2026-05-06 01:45 28.83970 -48.48656 39304 ft 515 kts 56°
2026-05-06 01:46 28.87755 -48.41703 39285 ft 515 kts 56°
2026-05-06 01:46 28.91533 -48.34751 39301 ft 514 kts 56°
2026-05-06 01:47 28.95297 -48.27812 39295 ft 514 kts 56°
2026-05-06 01:47 28.99067 -48.20854 39295 ft 515 kts 56°
2026-05-06 01:48 29.02807 -48.13936 39292 ft 514 kts 56°
2026-05-06 01:48 29.06559 -48.06986 39292 ft 514 kts 56°
2026-05-06 01:49 29.10316 -48.00016 39296 ft 515 kts 56°
2026-05-06 01:49 29.13707 -47.93712 39295 ft 514 kts 56°
2026-05-06 01:50 29.17419 -47.86802 39295 ft 513 kts 56°
2026-05-06 01:50 29.21159 -47.79828 39293 ft 514 kts 56°
2026-05-06 01:51 29.24894 -47.72851 39292 ft 513 kts 56°
2026-05-06 01:51 29.28623 -47.65875 39295 ft 513 kts 56°
2026-05-06 01:52 29.32351 -47.58887 39300 ft 513 kts 56°
2026-05-06 01:52 29.36076 -47.51894 39299 ft 513 kts 56°
2026-05-06 01:53 29.39771 -47.44946 39297 ft 513 kts 56°
2026-05-06 01:53 29.43480 -47.37959 39306 ft 513 kts 56°
2026-05-06 01:54 29.47186 -47.30966 39299 ft 513 kts 56°
2026-05-06 01:54 29.50894 -47.23956 39299 ft 513 kts 56°
2026-05-06 01:55 29.54597 -47.16943 39296 ft 513 kts 56°
2026-05-06 01:55 29.58294 -47.09930 39302 ft 513 kts 56°
2026-05-06 01:56 29.61989 -47.02910 39303 ft 513 kts 56°
2026-05-06 01:56 29.65657 -46.95928 39301 ft 513 kts 56°
2026-05-06 01:57 29.69339 -46.88906 39305 ft 512 kts 55°
2026-05-06 01:57 29.73019 -46.81878 39305 ft 513 kts 56°
2026-05-06 01:58 29.76698 -46.74840 39301 ft 513 kts 56°
2026-05-06 01:58 29.80373 -46.67796 39302 ft 513 kts 55°
2026-05-06 01:59 29.84054 -46.60728 39306 ft 514 kts 56°
2026-05-06 01:59 29.87723 -46.53669 39306 ft 513 kts 55°
2026-05-06 02:00 29.91391 -46.46603 39314 ft 513 kts 55°
2026-05-06 02:00 29.95031 -46.39576 39313 ft 513 kts 56°
2026-05-06 02:01 29.98690 -46.32501 39307 ft 512 kts 56°
2026-05-06 02:01 30.02333 -46.25443 39319 ft 512 kts 56°
2026-05-06 02:02 30.05972 -46.18382 39306 ft 512 kts 56°
2026-05-06 02:02 30.09587 -46.11354 39305 ft 510 kts 56°
2026-05-06 02:03 30.13212 -46.04295 39306 ft 510 kts 56°
2026-05-06 02:03 30.16825 -45.97247 39306 ft 510 kts 56°
2026-05-06 02:04 30.20437 -45.90187 39303 ft 510 kts 56°
2026-05-06 02:04 30.24047 -45.83120 39303 ft 510 kts 56°
2026-05-06 02:05 30.27632 -45.76089 39307 ft 511 kts 55°
2026-05-06 02:05 30.31242 -45.68995 39309 ft 511 kts 56°
2026-05-06 02:06 30.34848 -45.61898 39308 ft 511 kts 56°
2026-05-06 02:06 30.38451 -45.54793 39311 ft 513 kts 55°
2026-05-06 02:07 30.42074 -45.47640 39311 ft 515 kts 56°
2026-05-06 02:07 30.45697 -45.40469 39314 ft 516 kts 56°
2026-05-06 02:08 30.49320 -45.33284 39312 ft 516 kts 56°
2026-05-06 02:08 30.52946 -45.26083 39315 ft 518 kts 56°
2026-05-06 02:09 30.56572 -45.18866 39311 ft 518 kts 56°
2026-05-06 02:09 30.60188 -45.11654 39314 ft 517 kts 56°
2026-05-06 02:10 30.63782 -45.04477 39314 ft 517 kts 56°
2026-05-06 02:10 30.67393 -44.97251 39314 ft 517 kts 56°
2026-05-06 02:11 30.71002 -44.90017 39314 ft 517 kts 56°
2026-05-06 02:11 30.74608 -44.82774 39314 ft 517 kts 56°
2026-05-06 02:12 30.78205 -44.75534 39314 ft 516 kts 56°
2026-05-06 02:12 30.81798 -44.68292 39316 ft 516 kts 56°
2026-05-06 02:13 30.85387 -44.61043 39320 ft 516 kts 56°
2026-05-06 02:13 30.88946 -44.53842 39314 ft 516 kts 56°
2026-05-06 02:14 30.92517 -44.46601 39316 ft 516 kts 56°
2026-05-06 02:14 30.96091 -44.39342 39320 ft 515 kts 56°
2026-05-06 02:15 30.99660 -44.32079 39316 ft 515 kts 56°
2026-05-06 02:15 31.03196 -44.24870 39316 ft 515 kts 56°
2026-05-06 02:16 31.06754 -44.17602 39323 ft 515 kts 56°
2026-05-06 02:16 31.10305 -44.10336 39317 ft 516 kts 56°
2026-05-06 02:17 31.13859 -44.03049 39317 ft 517 kts 56°
2026-05-06 02:17 31.17403 -43.95767 39319 ft 515 kts 56°
2026-05-06 02:18 31.20942 -43.88482 39319 ft 515 kts 56°
2026-05-06 02:18 31.24472 -43.81204 39325 ft 515 kts 56°
2026-05-06 02:19 31.27974 -43.73967 39322 ft 514 kts 56°
2026-05-06 02:19 31.31492 -43.66686 39322 ft 514 kts 56°
2026-05-06 02:20 31.36759 -43.55757 39322 ft 514 kts 56°
2026-05-06 02:21 31.40265 -43.48464 39324 ft 514 kts 56°
2026-05-06 02:21 31.43766 -43.41169 39327 ft 514 kts 56°
2026-05-06 02:22 31.47262 -43.33869 39326 ft 514 kts 56°
2026-05-06 02:22 31.50731 -43.26613 39328 ft 514 kts 57°
2026-05-06 02:23 31.54217 -43.19304 39327 ft 514 kts 57°
2026-05-06 02:23 31.57702 -43.11986 39327 ft 514 kts 57°
2026-05-06 02:24 31.61185 -43.04656 39329 ft 514 kts 57°
2026-05-06 02:24 31.64662 -42.97325 39327 ft 513 kts 57°
2026-05-06 02:25 31.68132 -42.89995 39326 ft 513 kts 57°
2026-05-06 02:25 31.71012 -42.83901 39327 ft 513 kts 57°
2026-05-06 02:26 31.74469 -42.76571 39315 ft 513 kts 57°
2026-05-06 02:26 31.77927 -42.69226 39318 ft 513 kts 57°
2026-05-06 02:27 31.81379 -42.61879 39318 ft 513 kts 57°
2026-05-06 02:27 31.84807 -42.54568 39328 ft 514 kts 57°
2026-05-06 02:28 31.88253 -42.47206 39330 ft 514 kts 57°
2026-05-06 02:28 31.91695 -42.39835 39338 ft 514 kts 57°
2026-05-06 02:29 31.95139 -42.32447 39338 ft 513 kts 57°
2026-05-06 02:29 31.98573 -42.25066 39336 ft 513 kts 57°
2026-05-06 02:30 32.01979 -42.17729 39339 ft 513 kts 57°
2026-05-06 02:30 32.05404 -42.10337 39342 ft 513 kts 57°
2026-05-06 02:31 32.08823 -42.02944 39339 ft 513 kts 57°
2026-05-06 02:31 32.12234 -41.95553 39336 ft 513 kts 57°
2026-05-06 02:32 32.15641 -41.88155 39340 ft 512 kts 57°
2026-05-06 02:32 32.19040 -41.80762 39338 ft 512 kts 57°
2026-05-06 02:33 32.22412 -41.73411 39343 ft 512 kts 57°
2026-05-06 02:33 32.23555 -41.70914 39342 ft 512 kts 57°
2026-05-06 02:34 32.29177 -41.58619 39340 ft 511 kts 57°
2026-05-06 02:34 32.32556 -41.51209 39350 ft 511 kts 57°
2026-05-06 02:35 32.35922 -41.43812 39345 ft 511 kts 57°
2026-05-06 02:35 32.39280 -41.36417 39346 ft 510 kts 57°
2026-05-06 02:36 32.42638 -41.29006 39347 ft 510 kts 57°
2026-05-06 02:36 32.45964 -41.21652 39349 ft 510 kts 57°
2026-05-06 02:37 32.49317 -41.14224 39351 ft 510 kts 57°
2026-05-06 02:37 32.52661 -41.06801 39349 ft 510 kts 57°
2026-05-06 02:38 32.55995 -40.99384 39349 ft 510 kts 57°
2026-05-06 02:38 32.59305 -40.92006 39354 ft 510 kts 57°
2026-05-06 02:39 32.62631 -40.84576 39351 ft 509 kts 57°
2026-05-06 02:39 32.65950 -40.77146 39352 ft 509 kts 57°
2026-05-06 02:40 32.69265 -40.69712 39352 ft 509 kts 57°
2026-05-06 02:40 32.72577 -40.62267 39354 ft 509 kts 57°
2026-05-06 02:41 32.75860 -40.54874 39355 ft 510 kts 57°
2026-05-06 02:41 32.79164 -40.47418 39364 ft 510 kts 57°
2026-05-06 02:42 32.82468 -40.39944 39360 ft 510 kts 57°
2026-05-06 02:42 32.85764 -40.32473 39344 ft 510 kts 57°
2026-05-06 02:43 32.89054 -40.25002 39372 ft 510 kts 57°
2026-05-06 02:43 32.92342 -40.17519 39356 ft 509 kts 57°
2026-05-06 02:44 32.95621 -40.10040 39372 ft 509 kts 57°
2026-05-06 02:44 32.98895 -40.02558 39373 ft 509 kts 57°
2026-05-06 02:45 33.02022 -39.95028 39360 ft 512 kts 62°
2026-05-06 02:45 33.04713 -39.87156 39360 ft 513 kts 64°
2026-05-06 02:46 33.07350 -39.79244 39370 ft 513 kts 63°
2026-05-06 02:46 33.10051 -39.71368 39361 ft 512 kts 63°
2026-05-06 02:47 33.12785 -39.63521 39364 ft 512 kts 62°
2026-05-06 02:47 33.15519 -39.55683 39372 ft 512 kts 62°
2026-05-06 02:48 33.18227 -39.47894 39361 ft 511 kts 62°
2026-05-06 02:48 33.20946 -39.40047 39359 ft 511 kts 62°
2026-05-06 02:49 33.23660 -39.32192 39363 ft 511 kts 62°
2026-05-06 02:49 33.26364 -39.24345 39362 ft 511 kts 62°
2026-05-06 02:50 33.29065 -39.16489 39363 ft 511 kts 62°
2026-05-06 02:50 33.31761 -39.08632 39362 ft 511 kts 62°
2026-05-06 02:51 33.34453 -39.00763 39362 ft 511 kts 62°
2026-05-06 02:51 33.37123 -38.92940 39362 ft 511 kts 63°
2026-05-06 02:52 33.39804 -38.85066 39364 ft 511 kts 63°
2026-05-06 02:52 33.42485 -38.77174 39363 ft 512 kts 63°
2026-05-06 02:53 33.45162 -38.69273 39362 ft 512 kts 63°
2026-05-06 02:53 33.47835 -38.61363 39362 ft 511 kts 63°
2026-05-06 02:54 33.50499 -38.53458 39364 ft 511 kts 63°
2026-05-06 02:54 33.53158 -38.45553 39364 ft 511 kts 63°
2026-05-06 02:55 33.55797 -38.37683 39361 ft 511 kts 63°
2026-05-06 02:55 33.58441 -38.29780 39360 ft 510 kts 63°
2026-05-06 02:56 33.61083 -38.21865 39360 ft 510 kts 63°
2026-05-06 02:56 33.63714 -38.13961 39360 ft 509 kts 63°
2026-05-06 02:57 33.66334 -38.06071 39360 ft 508 kts 63°
2026-05-06 02:57 33.68954 -37.98162 39360 ft 508 kts 63°
2026-05-06 02:58 33.71545 -37.90321 39360 ft 507 kts 63°
2026-05-06 02:58 33.74143 -37.82437 39360 ft 507 kts 63°
2026-05-06 02:59 33.76732 -37.74562 39360 ft 507 kts 63°
2026-05-06 02:59 33.79318 -37.66674 39360 ft 506 kts 63°
2026-05-06 03:00 33.81890 -37.58809 39361 ft 505 kts 63°
2026-05-06 03:00 33.84464 -37.50919 39363 ft 505 kts 63°
2026-05-06 03:01 33.87011 -37.43094 39361 ft 505 kts 63°
2026-05-06 03:01 33.89571 -37.35207 39361 ft 506 kts 63°
2026-05-06 03:02 33.92128 -37.27308 39366 ft 506 kts 63°
2026-05-06 03:02 33.94682 -37.19400 39368 ft 506 kts 63°
2026-05-06 03:03 33.97233 -37.11480 39361 ft 507 kts 63°
2026-05-06 03:03 33.99781 -37.03547 39367 ft 507 kts 63°
2026-05-06 03:04 34.02321 -36.95621 39370 ft 507 kts 63°
2026-05-06 03:04 34.04845 -36.87723 39368 ft 508 kts 63°
2026-05-06 03:05 34.07384 -36.79757 39365 ft 508 kts 63°
2026-05-06 03:05 34.09919 -36.71784 39368 ft 509 kts 63°
2026-05-06 03:06 34.12453 -36.63791 39370 ft 510 kts 63°
2026-05-06 03:06 34.14968 -36.55839 39370 ft 510 kts 63°
2026-05-06 03:07 34.17492 -36.47836 39370 ft 510 kts 63°
2026-05-06 03:07 34.20013 -36.39819 39368 ft 510 kts 63°
2026-05-06 03:08 34.22527 -36.31808 39371 ft 510 kts 63°
2026-05-06 03:08 34.25033 -36.23796 39378 ft 510 kts 63°
2026-05-06 03:09 34.27544 -36.15753 39373 ft 512 kts 64°
2026-05-06 03:09 34.30036 -36.07747 39373 ft 512 kts 64°
2026-05-06 03:10 34.32539 -35.99678 39386 ft 512 kts 64°
2026-05-06 03:10 34.35044 -35.91590 39374 ft 513 kts 64°
2026-05-06 03:11 34.37545 -35.83485 39371 ft 514 kts 64°
2026-05-06 03:11 34.40044 -35.75368 39379 ft 514 kts 64°
2026-05-06 03:12 34.42519 -35.67305 39372 ft 514 kts 64°
2026-05-06 03:12 34.45024 -35.59124 39371 ft 514 kts 64°
2026-05-06 03:13 34.47487 -35.51055 39371 ft 514 kts 64°
2026-05-06 03:13 34.49967 -35.42910 39373 ft 515 kts 64°
2026-05-06 03:14 34.52443 -35.34758 39376 ft 515 kts 64°
2026-05-06 03:14 34.54494 -35.27983 39376 ft 515 kts 64°
2026-05-06 03:15 34.56957 -35.19828 39380 ft 514 kts 64°
2026-05-06 03:15 34.59416 -35.11665 39381 ft 514 kts 64°
2026-05-06 03:16 34.61869 -35.03499 39382 ft 514 kts 64°
2026-05-06 03:16 34.64317 -34.95327 39386 ft 513 kts 64°
2026-05-06 03:17 34.66736 -34.87226 39380 ft 513 kts 64°
2026-05-06 03:17 34.69164 -34.79078 39381 ft 513 kts 64°
2026-05-06 03:18 34.71583 -34.70933 39389 ft 512 kts 64°
2026-05-06 03:18 34.73998 -34.62781 39385 ft 512 kts 64°
2026-05-06 03:19 34.76403 -34.54638 39383 ft 512 kts 64°
2026-05-06 03:19 34.78805 -34.46485 39392 ft 511 kts 64°
2026-05-06 03:20 34.82380 -34.34302 39380 ft 511 kts 64°
2026-05-06 03:20 34.84767 -34.26139 39393 ft 511 kts 64°
2026-05-06 03:21 34.87147 -34.17980 39389 ft 511 kts 65°
2026-05-06 03:21 34.89505 -34.09866 39381 ft 510 kts 65°
2026-05-06 03:22 34.91870 -34.01710 39381 ft 510 kts 65°
2026-05-06 03:22 34.94229 -33.93552 39383 ft 510 kts 65°
2026-05-06 03:23 34.96585 -33.85378 39379 ft 510 kts 65°
2026-05-06 03:23 34.98932 -33.77212 39381 ft 510 kts 65°
2026-05-06 03:24 35.01266 -33.69069 39401 ft 511 kts 65°
2026-05-06 03:24 35.03606 -33.60881 39380 ft 512 kts 65°
2026-05-06 03:25 35.05947 -33.52666 39378 ft 512 kts 65°
2026-05-06 03:25 35.08280 -33.44451 39379 ft 512 kts 65°
2026-05-06 03:26 35.10608 -33.36227 39379 ft 512 kts 65°
2026-05-06 03:26 35.12931 -33.28004 39379 ft 512 kts 65°
2026-05-06 03:27 35.15248 -33.19775 39378 ft 512 kts 65°
2026-05-06 03:27 35.17559 -33.11546 39381 ft 511 kts 65°
2026-05-06 03:28 35.19864 -33.03309 39379 ft 511 kts 65°
2026-05-06 03:28 35.22147 -32.95129 39379 ft 511 kts 65°
2026-05-06 03:29 35.24440 -32.86887 39388 ft 512 kts 65°
2026-05-06 03:29 35.26729 -32.78637 39381 ft 512 kts 65°
2026-05-06 03:30 35.29012 -32.70384 39382 ft 512 kts 65°
2026-05-06 03:30 35.31290 -32.62121 39382 ft 512 kts 65°
2026-05-06 03:31 35.33553 -32.53886 39382 ft 513 kts 65°
2026-05-06 03:31 35.35824 -32.45603 39381 ft 513 kts 65°
2026-05-06 03:32 35.38089 -32.37310 39379 ft 513 kts 65°
2026-05-06 03:32 35.40350 -32.29009 39382 ft 514 kts 65°
2026-05-06 03:33 35.42608 -32.20698 39377 ft 514 kts 65°
2026-05-06 03:33 35.44863 -32.12368 39379 ft 514 kts 65°
2026-05-06 03:34 35.47113 -32.04030 39383 ft 514 kts 65°
2026-05-06 03:34 35.49343 -31.95741 39377 ft 515 kts 65°
2026-05-06 03:35 35.51584 -31.87386 39381 ft 515 kts 65°
2026-05-06 03:35 35.53817 -31.79032 39398 ft 515 kts 65°
2026-05-06 03:36 35.56044 -31.70675 39379 ft 515 kts 65°
2026-05-06 03:36 35.58269 -31.62303 39381 ft 515 kts 65°
2026-05-06 03:37 35.60490 -31.53915 39378 ft 515 kts 65°
2026-05-06 03:37 35.62703 -31.45535 39379 ft 515 kts 65°
2026-05-06 03:38 35.64898 -31.37195 39379 ft 515 kts 65°
2026-05-06 03:38 35.67098 -31.28807 39374 ft 515 kts 65°
2026-05-06 03:39 35.69291 -31.20419 39376 ft 515 kts 65°
2026-05-06 03:39 35.71478 -31.12031 39372 ft 515 kts 65°
2026-05-06 03:40 35.73660 -31.03635 39374 ft 515 kts 65°
2026-05-06 03:40 35.75837 -30.95229 39381 ft 515 kts 65°
2026-05-06 03:41 35.78006 -30.86826 39373 ft 515 kts 66°
2026-05-06 03:41 35.80155 -30.78472 39375 ft 515 kts 66°
2026-05-06 03:42 35.82312 -30.70066 39374 ft 515 kts 66°
2026-05-06 03:42 35.84465 -30.61642 39374 ft 515 kts 66°
2026-05-06 03:43 35.86610 -30.53226 39374 ft 515 kts 66°
2026-05-06 03:43 35.88752 -30.44790 39371 ft 515 kts 66°
2026-05-06 03:44 35.90887 -30.36359 39380 ft 515 kts 66°
2026-05-06 03:44 35.93004 -30.27966 39378 ft 515 kts 66°
2026-05-06 03:45 35.95131 -30.19510 39378 ft 516 kts 66°
2026-05-06 03:45 35.97255 -30.11037 39399 ft 516 kts 66°
2026-05-06 03:46 35.99355 -30.02630 39376 ft 516 kts 66°
2026-05-06 03:46 36.01464 -29.94153 39368 ft 516 kts 66°
2026-05-06 03:47 36.03557 -29.85667 39378 ft 516 kts 66°
2026-05-06 03:47 36.05644 -29.77176 39371 ft 516 kts 66°
2026-05-06 03:48 36.07725 -29.68687 39370 ft 516 kts 66°
2026-05-06 03:48 36.09807 -29.60168 39370 ft 517 kts 66°
2026-05-06 03:49 36.11880 -29.51661 39379 ft 517 kts 66°
2026-05-06 03:49 36.13950 -29.43134 39370 ft 516 kts 66°
2026-05-06 03:50 36.15999 -29.34667 39368 ft 516 kts 66°
2026-05-06 03:50 36.18053 -29.26149 39368 ft 516 kts 66°
2026-05-06 03:51 36.20101 -29.17623 39367 ft 516 kts 66°
2026-05-06 03:51 36.22141 -29.09102 39369 ft 516 kts 66°
2026-05-06 03:52 36.24177 -29.00570 39366 ft 516 kts 66°
2026-05-06 03:52 36.26205 -28.92038 39370 ft 516 kts 66°
2026-05-06 03:53 36.28224 -28.83514 39362 ft 515 kts 66°
2026-05-06 03:53 36.30224 -28.75045 39360 ft 515 kts 66°
2026-05-06 03:54 36.32232 -28.66512 39360 ft 515 kts 66°
2026-05-06 03:54 36.34230 -28.57985 39362 ft 514 kts 66°
2026-05-06 03:55 36.36223 -28.49455 39360 ft 514 kts 66°
2026-05-06 03:55 36.38209 -28.40924 39360 ft 514 kts 66°
2026-05-06 03:56 36.40190 -28.32385 39360 ft 514 kts 66°
2026-05-06 03:56 36.42154 -28.23889 39360 ft 515 kts 66°
2026-05-06 03:57 36.44121 -28.15347 39360 ft 515 kts 66°
2026-05-06 03:57 36.46085 -28.06787 39373 ft 515 kts 66°
2026-05-06 03:58 36.48039 -27.98233 39361 ft 513 kts 66°
2026-05-06 03:58 36.49985 -27.89693 39362 ft 513 kts 66°
2026-05-06 03:59 36.51912 -27.81206 39359 ft 513 kts 66°
2026-05-06 03:59 36.53844 -27.72664 39359 ft 512 kts 66°
2026-05-06 04:00 36.55763 -27.64142 39360 ft 511 kts 66°
2026-05-06 04:00 36.57677 -27.55617 39359 ft 511 kts 66°
2026-05-06 04:01 36.59578 -27.47122 39379 ft 511 kts 66°
2026-05-06 04:01 36.61479 -27.38591 39355 ft 510 kts 66°
2026-05-06 04:02 36.63373 -27.30060 39355 ft 510 kts 66°
2026-05-06 04:02 36.65258 -27.21541 39355 ft 510 kts 66°
2026-05-06 04:03 36.67127 -27.13063 39354 ft 509 kts 66°
2026-05-06 04:03 36.68683 -27.05975 39349 ft 509 kts 66°
2026-05-06 04:04 36.70547 -26.97462 39347 ft 509 kts 66°
2026-05-06 04:04 36.72403 -26.88953 39344 ft 509 kts 67°
2026-05-06 04:05 36.74253 -26.80437 39345 ft 508 kts 67°
2026-05-06 04:05 36.76092 -26.71940 39346 ft 507 kts 67°
2026-05-06 04:06 36.77916 -26.63482 39344 ft 507 kts 67°
2026-05-06 04:06 36.79743 -26.54981 39366 ft 508 kts 67°
2026-05-06 04:07 36.81559 -26.46490 39347 ft 506 kts 67°
2026-05-06 04:07 36.83369 -26.38000 39344 ft 506 kts 67°
2026-05-06 04:08 36.85175 -26.29501 39342 ft 506 kts 67°
2026-05-06 04:08 36.86970 -26.21018 39348 ft 505 kts 67°
2026-05-06 04:09 36.88756 -26.12540 39345 ft 504 kts 67°
2026-05-06 04:09 36.90535 -26.04070 39344 ft 504 kts 67°
2026-05-06 04:10 36.92299 -25.95638 39346 ft 504 kts 67°
2026-05-06 04:10 36.94063 -25.87167 39341 ft 503 kts 67°
2026-05-06 04:11 36.95817 -25.78713 39341 ft 502 kts 67°
2026-05-06 04:11 36.97565 -25.70263 39341 ft 502 kts 67°
2026-05-06 04:12 36.99310 -25.61794 39354 ft 502 kts 67°
2026-05-06 04:12 37.01044 -25.53336 39343 ft 501 kts 68°
2026-05-06 04:13 37.02773 -25.44877 39338 ft 501 kts 68°
2026-05-06 04:13 37.04483 -25.36475 39332 ft 501 kts 68°
2026-05-06 04:14 37.06200 -25.28007 39297 ft 501 kts 68°
2026-05-06 04:14 37.07911 -25.19534 39295 ft 501 kts 68°
2026-05-06 04:15 37.09615 -25.11060 39301 ft 501 kts 68°
2026-05-06 04:15 37.11315 -25.02578 39309 ft 501 kts 68°
2026-05-06 04:16 37.13007 -24.94097 39315 ft 501 kts 68°
2026-05-06 04:16 37.14692 -24.85619 39322 ft 501 kts 68°
2026-05-06 04:17 37.16360 -24.77189 39330 ft 501 kts 68°
2026-05-06 04:17 37.18036 -24.68688 39350 ft 502 kts 68°
2026-05-06 04:18 37.19701 -24.60201 39327 ft 500 kts 68°
2026-05-06 04:18 37.21357 -24.51730 39327 ft 500 kts 68°
2026-05-06 04:19 37.23012 -24.43237 39325 ft 500 kts 68°
2026-05-06 04:19 37.24646 -24.34812 39331 ft 499 kts 68°
2026-05-06 04:20 37.26280 -24.26348 39324 ft 498 kts 68°
2026-05-06 04:20 37.27908 -24.17886 39322 ft 498 kts 68°
2026-05-06 04:21 37.29531 -24.09419 39319 ft 499 kts 68°
2026-05-06 04:21 37.31147 -24.00946 39320 ft 497 kts 68°
2026-05-06 04:22 37.32752 -23.92491 39319 ft 497 kts 68°
2026-05-06 04:23 37.35150 -23.79806 39319 ft 497 kts 68°
2026-05-06 04:23 37.36741 -23.71347 39312 ft 497 kts 68°
2026-05-06 04:24 37.38325 -23.62879 39325 ft 497 kts 68°
2026-05-06 04:24 37.39893 -23.54468 39311 ft 497 kts 69°
2026-05-06 04:25 37.41466 -23.45992 39304 ft 498 kts 69°
2026-05-06 04:25 37.43034 -23.37506 39314 ft 497 kts 68°
2026-05-06 04:26 37.44596 -23.29018 39305 ft 497 kts 69°
2026-05-06 04:26 37.46151 -23.20532 39311 ft 497 kts 69°
2026-05-06 04:27 37.47701 -23.12038 39308 ft 498 kts 69°
2026-05-06 04:27 37.49243 -23.03546 39310 ft 497 kts 69°
2026-05-06 04:28 37.50767 -22.95115 39309 ft 497 kts 69°
2026-05-06 04:28 37.52297 -22.86623 39308 ft 497 kts 69°
2026-05-06 04:29 37.53822 -22.78123 39330 ft 497 kts 69°
2026-05-06 04:29 37.55336 -22.69634 39302 ft 496 kts 69°
2026-05-06 04:30 37.56844 -22.61151 39298 ft 496 kts 69°
2026-05-06 04:30 37.58336 -22.52718 39302 ft 496 kts 69°
2026-05-06 04:31 37.59830 -22.44237 39320 ft 496 kts 69°
2026-05-06 04:31 37.61317 -22.35754 39296 ft 495 kts 69°
2026-05-06 04:32 37.62799 -22.27267 39298 ft 495 kts 69°
2026-05-06 04:32 37.64275 -22.18776 39294 ft 495 kts 69°
2026-05-06 04:33 37.65742 -22.10294 39296 ft 495 kts 69°
2026-05-06 04:33 37.67206 -22.01791 39293 ft 495 kts 69°
2026-05-06 04:34 37.68663 -21.93294 39289 ft 495 kts 69°
2026-05-06 04:34 37.70114 -21.84794 39293 ft 495 kts 69°
2026-05-06 04:35 37.71550 -21.76336 39298 ft 495 kts 69°
2026-05-06 04:35 37.72991 -21.67815 39288 ft 495 kts 69°
2026-05-06 04:36 37.74425 -21.59292 39290 ft 495 kts 69°
2026-05-06 04:36 37.75853 -21.50771 39284 ft 496 kts 69°
2026-05-06 04:37 37.77274 -21.42245 39289 ft 495 kts 69°
2026-05-06 04:37 37.78690 -21.33714 39281 ft 496 kts 69°
2026-05-06 04:38 37.80100 -21.25176 39278 ft 496 kts 69°
2026-05-06 04:38 37.81504 -21.16636 39279 ft 496 kts 69°
2026-05-06 04:39 37.82892 -21.08149 39277 ft 496 kts 69°
2026-05-06 04:39 37.84285 -20.99590 39276 ft 496 kts 69°
2026-05-06 04:40 37.85671 -20.91040 39274 ft 496 kts 69°
2026-05-06 04:40 37.87051 -20.82478 39273 ft 495 kts 70°
2026-05-06 04:41 37.88422 -20.73931 39275 ft 496 kts 70°
2026-05-06 04:41 37.89789 -20.65376 39268 ft 496 kts 70°
2026-05-06 04:42 37.91139 -20.56876 39261 ft 496 kts 70°
2026-05-06 04:42 37.92502 -20.48256 39267 ft 496 kts 70°
2026-05-06 04:43 37.93841 -20.39746 39262 ft 496 kts 70°
2026-05-06 04:43 37.95181 -20.31187 39260 ft 495 kts 70°
2026-05-06 04:44 37.96516 -20.22615 39263 ft 495 kts 70°
2026-05-06 04:44 37.97846 -20.14038 39260 ft 495 kts 70°
2026-05-06 04:45 37.99169 -20.05458 39267 ft 496 kts 70°
2026-05-06 04:45 37.99830 -20.01158 39395 ft 496 kts 70°
2026-05-06 04:45 38.00522 -19.96885 39569 ft 492 kts 68°
2026-05-06 04:45 38.01382 -19.92708 39728 ft 489 kts 65°
2026-05-06 04:46 38.02346 -19.88571 39868 ft 487 kts 64°
2026-05-06 04:46 38.03327 -19.84497 39993 ft 488 kts 64°
2026-05-06 04:46 38.04313 -19.80376 40124 ft 488 kts 65°
2026-05-06 04:46 38.05279 -19.76242 40285 ft 489 kts 65°
2026-05-06 04:47 38.06225 -19.72093 40416 ft 489 kts 66°
2026-05-06 04:47 38.07158 -19.67931 40525 ft 490 kts 66°
2026-05-06 04:47 38.08078 -19.63772 40647 ft 490 kts 66°
2026-05-06 04:47 38.08995 -19.59605 40763 ft 490 kts 67°
2026-05-06 04:48 38.09911 -19.55428 40880 ft 491 kts 67°
2026-05-06 04:48 38.10827 -19.51247 40997 ft 491 kts 67°
2026-05-06 04:48 38.11740 -19.47073 41098 ft 491 kts 67°
2026-05-06 04:48 38.12653 -19.42895 41218 ft 491 kts 67°
2026-05-06 04:49 38.13556 -19.38760 41241 ft 492 kts 67°
2026-05-06 04:49 38.15383 -19.30371 41255 ft 492 kts 68°
2026-05-06 04:50 38.17202 -19.21985 41238 ft 492 kts 68°
2026-05-06 04:50 38.19015 -19.13600 41252 ft 492 kts 68°
2026-05-06 04:51 38.20519 -19.06619 41245 ft 492 kts 68°
2026-05-06 04:51 38.22323 -18.98216 41241 ft 492 kts 68°
2026-05-06 04:52 38.24120 -18.89810 41240 ft 492 kts 68°
2026-05-06 04:52 38.25911 -18.81402 41233 ft 492 kts 68°
2026-05-06 04:53 38.27696 -18.72993 41229 ft 492 kts 68°
2026-05-06 04:53 38.29475 -18.64577 41240 ft 492 kts 68°
2026-05-06 04:54 38.31251 -18.56142 41231 ft 493 kts 68°
2026-05-06 04:54 38.33024 -18.47692 41230 ft 493 kts 68°
2026-05-06 04:55 38.34778 -18.39296 41226 ft 493 kts 69°
2026-05-06 04:55 38.36537 -18.30844 41224 ft 493 kts 69°
2026-05-06 04:56 38.38290 -18.22387 41225 ft 493 kts 69°
2026-05-06 04:56 38.40029 -18.13964 41224 ft 493 kts 69°
2026-05-06 04:57 38.41772 -18.05494 41227 ft 493 kts 69°
2026-05-06 04:57 38.43507 -17.97022 41222 ft 493 kts 69°
2026-05-06 04:58 38.45237 -17.88545 41222 ft 493 kts 69°
2026-05-06 04:58 38.46959 -17.80068 41217 ft 493 kts 69°
2026-05-06 04:59 38.48666 -17.71638 41224 ft 494 kts 70°
2026-05-06 04:59 38.50380 -17.63135 41214 ft 494 kts 70°
2026-05-06 05:00 38.52087 -17.54634 41211 ft 494 kts 70°
2026-05-06 05:00 38.53788 -17.46123 41211 ft 494 kts 70°
2026-05-06 05:01 38.55486 -17.37598 41222 ft 494 kts 70°
2026-05-06 05:01 38.57164 -17.29134 41206 ft 495 kts 70°
2026-05-06 05:02 38.58852 -17.20588 41207 ft 495 kts 70°
2026-05-06 05:02 38.60532 -17.12045 41206 ft 495 kts 70°
2026-05-06 05:03 38.62205 -17.03508 41225 ft 495 kts 71°
2026-05-06 05:03 38.63875 -16.94949 41202 ft 497 kts 71°
2026-05-06 05:04 38.65542 -16.86365 41197 ft 497 kts 71°
2026-05-06 05:04 38.67192 -16.77831 41199 ft 497 kts 71°
2026-05-06 05:05 38.68845 -16.69244 41204 ft 497 kts 72°
2026-05-06 05:05 38.70496 -16.60636 41194 ft 498 kts 72°
2026-05-06 05:06 38.72140 -16.52026 41194 ft 498 kts 72°
2026-05-06 05:06 38.73782 -16.43388 41193 ft 498 kts 72°
2026-05-06 05:07 38.75406 -16.34812 41197 ft 498 kts 72°
2026-05-06 05:07 38.77033 -16.26178 41191 ft 498 kts 72°
2026-05-06 05:08 38.78654 -16.17542 41182 ft 499 kts 72°
2026-05-06 05:08 38.80272 -16.08883 41183 ft 499 kts 72°
2026-05-06 05:09 38.81881 -16.00230 41179 ft 499 kts 72°
2026-05-06 05:09 38.83485 -15.91571 41184 ft 499 kts 73°
2026-05-06 05:10 38.85070 -15.82971 41180 ft 499 kts 73°
2026-05-06 05:10 38.86661 -15.74304 41174 ft 499 kts 73°
2026-05-06 05:11 38.88248 -15.65621 41175 ft 499 kts 73°
2026-05-06 05:11 38.89827 -15.56941 41175 ft 499 kts 73°
2026-05-06 05:12 38.91401 -15.48250 41169 ft 499 kts 73°
2026-05-06 05:12 38.92966 -15.39567 41162 ft 499 kts 73°
2026-05-06 05:13 38.94517 -15.30924 41166 ft 499 kts 73°
2026-05-06 05:13 38.96071 -15.22225 41170 ft 499 kts 73°
2026-05-06 05:14 38.97619 -15.13517 41154 ft 500 kts 73°
2026-05-06 05:14 38.99160 -15.04810 41163 ft 499 kts 73°
2026-05-06 05:15 39.00403 -14.96000 41162 ft 502 kts 78°
2026-05-06 05:15 39.01348 -14.87098 41162 ft 503 kts 79°
2026-05-06 05:16 39.02241 -14.78167 41159 ft 503 kts 79°
2026-05-06 05:16 39.03119 -14.69304 41162 ft 503 kts 79°
2026-05-06 05:17 39.04005 -14.60370 41144 ft 503 kts 79°
2026-05-06 05:17 39.04887 -14.51435 41150 ft 503 kts 79°
2026-05-06 05:18 39.05765 -14.42477 41152 ft 504 kts 80°
2026-05-06 05:18 39.06629 -14.33592 41149 ft 504 kts 80°
2026-05-06 05:19 39.07493 -14.24631 41146 ft 504 kts 80°
2026-05-06 05:19 39.08351 -14.15653 41145 ft 504 kts 80°
2026-05-06 05:20 39.09203 -14.06676 41140 ft 505 kts 80°
2026-05-06 05:20 39.10047 -13.97698 41140 ft 505 kts 80°
2026-05-06 05:21 39.10879 -13.88774 41141 ft 505 kts 80°
2026-05-06 05:21 39.11710 -13.79788 41141 ft 506 kts 81°
2026-05-06 05:22 39.12535 -13.70791 41135 ft 506 kts 81°
2026-05-06 05:22 39.13354 -13.61776 41132 ft 506 kts 81°
2026-05-06 05:23 39.14166 -13.52758 41132 ft 506 kts 81°
2026-05-06 05:23 39.15368 -13.39275 41129 ft 507 kts 81°
2026-05-06 05:24 39.16165 -13.30229 41129 ft 508 kts 81°
2026-05-06 05:24 39.16954 -13.21185 41129 ft 508 kts 81°
2026-05-06 05:25 39.17737 -13.12138 41136 ft 508 kts 82°
2026-05-06 05:25 39.18513 -13.03078 41119 ft 509 kts 82°
2026-05-06 05:26 39.19284 -12.93999 41125 ft 509 kts 82°
2026-05-06 05:26 39.20048 -12.84919 41120 ft 509 kts 82°
2026-05-06 05:27 39.20801 -12.75887 41126 ft 510 kts 82°
2026-05-06 05:27 39.21552 -12.66789 41116 ft 511 kts 82°
2026-05-06 05:28 39.22297 -12.57674 41113 ft 511 kts 82°
2026-05-06 05:28 39.23036 -12.48549 41114 ft 511 kts 82°
2026-05-06 05:29 39.23767 -12.39428 41114 ft 511 kts 82°
2026-05-06 05:29 39.24492 -12.30294 41107 ft 512 kts 83°
2026-05-06 05:30 39.25211 -12.21147 41110 ft 512 kts 83°
2026-05-06 05:30 39.25922 -12.11998 41105 ft 512 kts 83°
2026-05-06 05:31 39.26627 -12.02838 41107 ft 512 kts 83°
2026-05-06 05:31 39.27321 -11.93727 41103 ft 513 kts 83°
2026-05-06 05:32 39.28013 -11.84555 41098 ft 513 kts 83°
2026-05-06 05:32 39.28697 -11.75381 41097 ft 513 kts 83°
2026-05-06 05:33 39.29371 -11.66245 41091 ft 513 kts 83°
2026-05-06 05:33 39.30041 -11.57064 41091 ft 513 kts 83°
2026-05-06 05:34 39.30704 -11.47875 41091 ft 513 kts 83°
2026-05-06 05:34 39.31359 -11.38696 41091 ft 513 kts 83°
2026-05-06 05:35 39.32003 -11.29570 41092 ft 513 kts 83°
2026-05-06 05:35 39.32646 -11.20368 41086 ft 514 kts 84°
2026-05-06 05:36 39.33280 -11.11170 41080 ft 514 kts 84°
2026-05-06 05:36 39.33908 -11.01959 41080 ft 514 kts 84°
2026-05-06 05:37 39.34526 -10.92792 41074 ft 514 kts 84°
2026-05-06 05:37 39.35139 -10.83584 41075 ft 515 kts 84°
2026-05-06 05:38 39.35746 -10.74364 41072 ft 515 kts 84°
2026-05-06 05:38 39.36345 -10.65138 41072 ft 515 kts 84°
2026-05-06 05:39 39.36938 -10.55914 41074 ft 515 kts 84°
2026-05-06 05:39 39.37519 -10.46744 41067 ft 515 kts 84°
2026-05-06 05:40 39.38098 -10.37498 41063 ft 515 kts 84°
2026-05-06 05:40 39.38668 -10.28266 41062 ft 515 kts 84°
2026-05-06 05:41 39.39232 -10.19023 41062 ft 515 kts 85°
2026-05-06 05:41 39.39695 -10.11341 41058 ft 516 kts 85°
2026-05-06 05:42 39.40246 -10.02077 41060 ft 516 kts 85°
2026-05-06 05:42 39.40790 -9.92816 41057 ft 516 kts 85°
2026-05-06 05:43 39.41327 -9.83545 41055 ft 516 kts 85°
2026-05-06 05:43 39.41853 -9.74343 41049 ft 517 kts 85°
2026-05-06 05:44 39.42375 -9.65068 41043 ft 517 kts 85°
2026-05-06 05:44 39.42890 -9.55787 41048 ft 517 kts 85°
2026-05-06 05:45 39.43399 -9.46497 41045 ft 517 kts 85°
2026-05-06 05:45 39.43900 -9.37205 41045 ft 518 kts 85°
2026-05-06 05:46 39.44394 -9.27891 41045 ft 518 kts 85°
2026-05-06 05:46 39.44879 -9.18631 41042 ft 518 kts 85°
2026-05-06 05:47 39.45359 -9.09314 41038 ft 518 kts 86°
2026-05-06 05:47 39.45832 -8.99982 41037 ft 519 kts 86°
2026-05-06 05:48 39.46298 -8.90646 41030 ft 520 kts 86°
2026-05-06 05:48 39.46756 -8.81299 41033 ft 520 kts 86°
2026-05-06 05:49 39.47205 -8.72010 41033 ft 520 kts 86°
2026-05-06 05:49 39.47652 -8.62590 41035 ft 521 kts 86°